Weather History for Mount Pleasant, SC

Change the Weather History Date:

Saturday, October 6, 2012

  Actual Average (KCHS) Record (KCHS)
Temperature  
Mean Temperature 74 °F 70 °F  
Max Temperature 84 °F 80 °F 93 °F (1954)
Min Temperature 64 °F 60 °F 45 °F (1964)
Degree Days  
Heating Degree Days 0 1  
Month to date heating degree days 6  
Since 1 July heating degree days 9  
Cooling Degree Days 9 6  
Month to date cooling degree days 39  
Year to date cooling degree days 2177  
Growing Degree Days 24 (Base 50)    
Moisture  
Dew Point 68 °F    
Average Humidity 84    
Maximum Humidity 100    
Minimum Humidity 54    
Precipitation  
Precipitation 0.00 in 0.14 in 1.22 in (2005)
Month to date precipitation 0.94  
Year to date precipitation 42.68  
Sea Level Pressure  
Sea Level Pressure 29.97 in    
Wind  
Wind Speed 2 mph (South)    
Max Wind Speed 10 mph    
Max Gust Speed -    
Visibility 7 miles    
Events      
T = Trace of Precipitation, MM = Missing Value Source: NWS Daily Summary

Daily Weather History Graph

Daily Weather History Graph

Search for Another Location

Airport:

Trip Planner

Search our weather history database for the weather conditions in past years. The results will help you decide how hot, cold, wet, or windy it might be!

Date:

Astronomy

Oct. 06, 2012 Rise Set
Actual Time 7:17 AM EDT 6:56 PM EDT
Civil Twilight 6:52 AM EDT 7:21 PM EDT
Nautical Twilight 6:23 AM EDT 7:49 PM EDT
Astronomical Twilight 5:55 AM EDT 8:18 PM EDT
Moon 11:24 PM EDT (10/6) 12:56 PM EDT (10/6)
Length of Visible Light 12h 28m
Length of Day
11h 39m
Waning Gibbous, 65% of the Moon is Illuminated
Oct 6
Waning Gibbous
Oct 8
Last Quarter
Oct 15
New
Oct 21
First Quarter
Oct 29
Full

Hourly Weather History & Observations

Time (EDT) Temp. Heat Index Dew Point Humidity Pressure Visibility Wind Dir Wind Speed Gust Speed Precip Events Conditions
12:55 AM 66.2 °F - 66.2 °F 100% 30.03 in 5.0 mi Calm Calm - N/A   Clear
1:15 AM 66.2 °F - 66.2 °F 100% 30.03 in 5.0 mi Calm Calm - N/A   Clear
1:35 AM 66.2 °F - 66.2 °F 100% 30.03 in 5.0 mi Calm Calm - N/A   Clear
1:55 AM 66.2 °F - 66.2 °F 100% 30.03 in 5.0 mi Calm Calm - N/A   Clear
2:15 AM 66.2 °F - 66.2 °F 100% 30.02 in 4.0 mi Calm Calm - N/A   Clear
2:35 AM 66.2 °F - 66.2 °F 100% 30.01 in 4.0 mi Calm Calm - N/A   Clear
2:55 AM 66.2 °F - 66.2 °F 100% 30.01 in 4.0 mi Calm Calm - N/A   Clear
3:15 AM 66.2 °F - 66.2 °F 100% 30.00 in 5.0 mi Calm Calm - N/A   Clear
3:35 AM 66.2 °F - 66.2 °F 100% 30.00 in 5.0 mi Calm Calm - N/A   Clear
3:55 AM 66.2 °F - 66.2 °F 100% 29.99 in 5.0 mi Calm Calm - N/A   Clear
4:15 AM 66.2 °F - 66.2 °F 100% 29.99 in 4.0 mi Calm Calm - N/A   Clear
4:35 AM 66.2 °F - 66.2 °F 100% 29.99 in 5.0 mi Calm Calm - N/A   Partly Cloudy
4:55 AM 66.2 °F - 66.2 °F 100% 29.99 in 5.0 mi Calm Calm - N/A   Mostly Cloudy
5:15 AM 66.2 °F - 66.2 °F 100% 29.99 in 5.0 mi Calm Calm - N/A   Mostly Cloudy
5:35 AM 66.2 °F - 66.2 °F 100% 29.99 in 4.0 mi Calm Calm - N/A   Mostly Cloudy
5:55 AM 66.2 °F - 66.2 °F 100% 29.99 in 4.0 mi Calm Calm - N/A   Overcast
6:15 AM 66.2 °F - 66.2 °F 100% 29.99 in 4.0 mi Calm Calm - N/A   Mostly Cloudy
6:35 AM 66.2 °F - 66.2 °F 100% 29.98 in 4.0 mi Calm Calm - N/A   Partly Cloudy
6:55 AM 66.2 °F - 66.2 °F 100% 29.99 in 3.0 mi Calm Calm - N/A   Clear
7:15 AM 66.2 °F - 66.2 °F 100% 29.99 in 3.0 mi Calm Calm - N/A   Clear
7:35 AM 64.4 °F - 64.4 °F 100% 29.99 in 2.0 mi Calm Calm - N/A   Clear
7:55 AM 64.4 °F - 64.4 °F 100% 30.00 in 3.0 mi Calm Calm - N/A   Clear
8:15 AM 66.2 °F - 64.4 °F 94% 30.00 in 2.5 mi Calm Calm - N/A   Clear
8:35 AM 66.2 °F - 66.2 °F 100% 30.00 in 3.0 mi Calm Calm - N/A   Clear
8:55 AM 68.0 °F - 68.0 °F 100% 30.01 in 3.0 mi Calm Calm - N/A   Clear
9:35 AM 73.4 °F - 69.8 °F 88% 30.01 in 8.0 mi Calm Calm - N/A   Partly Cloudy
9:55 AM 75.2 °F - 69.8 °F 83% 30.01 in 8.0 mi Calm Calm - N/A   Clear
10:15 AM 78.8 °F - 69.8 °F 74% 30.01 in 9.0 mi NNW 3.5 mph - N/A   Clear
10:35 AM 78.8 °F - 66.2 °F 65% 30.01 in 10.0 mi NNW 3.5 mph - N/A   Clear
10:55 AM 80.6 °F 82.7 °F 66.2 °F 61% 30.00 in 9.0 mi NW 4.6 mph - N/A   Clear
11:15 AM 82.4 °F 83.9 °F 64.4 °F 54% 30.00 in 10.0 mi NNW 3.5 mph - N/A   Clear
11:35 AM 82.4 °F 83.9 °F 64.4 °F 54% 30.00 in 10.0 mi Calm Calm - N/A   Light Drizzle
11:55 AM 82.4 °F 84.6 °F 66.2 °F 58% 30.00 in 10.0 mi NW 3.5 mph - N/A   Light Drizzle
12:15 PM 82.4 °F 84.6 °F 66.2 °F 58% 29.99 in 10.0 mi Calm Calm - N/A   Light Drizzle
12:35 PM 82.4 °F 84.6 °F 66.2 °F 58% 29.98 in 10.0 mi Calm Calm - N/A   Light Drizzle
12:55 PM 82.4 °F 84.6 °F 66.2 °F 58% 29.97 in 10.0 mi Calm Calm - N/A   Mostly Cloudy
1:15 PM 84.2 °F 86.6 °F 66.2 °F 55% 29.96 in 10.0 mi South 4.6 mph - N/A   Light Drizzle
1:35 PM 80.6 °F 83.9 °F 69.8 °F 70% 29.95 in 9.0 mi SE 5.8 mph - N/A   Scattered Clouds
1:55 PM 82.4 °F 86.3 °F 69.8 °F 66% 29.95 in 9.0 mi SSE 8.1 mph - N/A   Light Drizzle
2:15 PM 82.4 °F 85.4 °F 68.0 °F 62% 29.94 in 10.0 mi SSE 6.9 mph - N/A   Light Drizzle
2:35 PM 82.4 °F 84.6 °F 66.2 °F 58% 29.94 in 10.0 mi South 6.9 mph - N/A   Light Drizzle
2:55 PM 82.4 °F 85.4 °F 68.0 °F 62% 29.93 in 10.0 mi SSE 8.1 mph - N/A   Light Drizzle
3:15 PM 82.4 °F 84.6 °F 66.2 °F 58% 29.93 in 9.0 mi South 8.1 mph - N/A   Clear
3:35 PM 82.4 °F 84.6 °F 66.2 °F 58% 29.92 in 10.0 mi SSE 5.8 mph - N/A   Light Drizzle
3:55 PM 82.4 °F 85.4 °F 68.0 °F 62% 29.92 in 10.0 mi South 10.4 mph - N/A   Light Drizzle
4:15 PM 82.4 °F 86.3 °F 69.8 °F 66% 29.91 in 9.0 mi South 8.1 mph - N/A   Clear
4:35 PM 82.4 °F 86.3 °F 69.8 °F 66% 29.91 in 10.0 mi SSE 8.1 mph - N/A   Light Drizzle
4:55 PM 82.4 °F 86.3 °F 69.8 °F 66% 29.91 in 10.0 mi South 9.2 mph - N/A   Clear
5:15 PM 82.4 °F 86.3 °F 69.8 °F 66% 29.90 in 10.0 mi SSE 10.4 mph - N/A   Clear
5:35 PM 80.6 °F 83.9 °F 69.8 °F 70% 29.91 in 10.0 mi South 9.2 mph - N/A   Clear
5:55 PM 80.6 °F 83.9 °F 69.8 °F 70% 29.91 in 10.0 mi South 8.1 mph - N/A   Clear
6:15 PM 80.6 °F 83.9 °F 69.8 °F 70% 29.91 in 10.0 mi South 5.8 mph - N/A   Clear
6:35 PM 78.8 °F - 69.8 °F 74% 29.92 in 10.0 mi South 6.9 mph - N/A   Clear
6:55 PM 75.2 °F - 69.8 °F 83% 29.92 in 10.0 mi South 3.5 mph - N/A   Clear
7:15 PM 73.4 °F - 69.8 °F 88% 29.92 in 10.0 mi South 3.5 mph - N/A   Clear
7:35 PM 73.4 °F - 69.8 °F 88% 29.93 in 10.0 mi Calm Calm - N/A   Clear
7:55 PM 71.6 °F - 69.8 °F 94% 29.94 in 10.0 mi Calm Calm - N/A   Clear
8:15 PM 71.6 °F - 69.8 °F 94% 29.94 in 10.0 mi Calm Calm - N/A   Clear
8:35 PM 71.6 °F - 69.8 °F 94% 29.95 in 9.0 mi SSW 3.5 mph - N/A   Clear
8:55 PM 71.6 °F - 69.8 °F 94% 29.95 in 8.0 mi Calm Calm - N/A   Clear
9:15 PM 71.6 °F - 69.8 °F 94% 29.96 in 9.0 mi South 3.5 mph - N/A   Clear
9:35 PM 71.6 °F - 69.8 °F 94% 29.96 in 8.0 mi South 4.6 mph - N/A   Clear
9:55 PM 71.6 °F - 69.8 °F 94% 29.96 in 8.0 mi Calm Calm - N/A   Clear
10:15 PM 71.6 °F - 69.8 °F 94% 29.97 in 8.0 mi South 3.5 mph - N/A   Clear
10:35 PM 71.6 °F - 69.8 °F 94% 29.97 in 7.0 mi Calm Calm - N/A   Clear
10:55 PM 71.6 °F - 69.8 °F 94% 29.97 in 7.0 mi Calm Calm - N/A   Clear
11:15 PM 69.8 °F - 69.8 °F 100% 29.97 in 7.0 mi South 3.5 mph - N/A   Clear
11:35 PM 69.8 °F - 69.8 °F 100% 29.96 in 5.0 mi Calm Calm - N/A   Clear
11:55 PM 69.8 °F - 69.8 °F 100% 29.96 in 6.0 mi South 3.5 mph - N/A   Clear